Location: Asheville, NC
(35.6000°N, 82.5500°W)
Time: 16:39:49
(UTC-05:00)

Hubble Space Telescope - Pass Details

Date: 03 January 2018
Orbit: 537 x 541 km, 28.5° (Epoch: 19 January)

Event Time Altitude Azimuth Distance (km) Brightness Sun altitude
Exits shadow 05:16:26 15° 163° (SSE) 1,505 3.3 -28.5°
Maximum altitude 05:16:35 15° 161° (SSE) 1,504 3.3 -28.4°
Drops below altitude 10° 05:18:55 10° 126° (SE) 1,781 4.2 -28.0°
Sets 05:22:00 0° 102° (ESE) 2,673 5.6 -27.3°
